Location: ?????
(55.6500°N, 37.2500°E)
Time: 12:56:42
(UTC+00:00)

Cosmos 1470 Rocket - Pass Details

Date: 19 May 2025
Orbit: 597 x 628 km, 82.5° (Epoch: 20 June)

Event Time Altitude Azimuth Distance (km) Brightness Sun altitude
Rises 22:44:13 0° 343° (NNW) 2,872 7.9 -12.6°
Reaches altitude 10° 22:46:34 10° 335° (NNW) 1,959 6.8 -12.5°
Maximum altitude 22:50:31 36° 268° (W) 955 4.3 -12.3°
Enters shadow 22:53:10 18° 211° (SSW) 1,483 4.9 -12.2°
